Location: Unspecified
(35.0197°N, 0.0000°E)
Time: 03:07:21
(UTC+00:00)

Orbcomm D8 (FM36) - Visible Passes

Search period start: 04 April 2026 00:00
Search period end: 14 April 2026 00:00
Orbit: 759 x 765 km, 45.0° (Epoch: 29 March)

Date Brightness Start Highest point End Pass type
(mag) Time Alt. Az. Time Alt. Az. Time Alt. Az.
4 Apr 10.0 02:59:00 28° N 02:59:07 28° N 03:03:43 10° NE visible
4 Apr 9.8 04:40:17 10° NW 04:45:17 37° NNE 04:50:16 10° E visible
5 Apr 10.6 02:19:30 23° NNE 02:19:30 23° NNE 02:22:13 10° NE visible
5 Apr 9.9 03:59:32 13° NW 04:03:46 33° NNE 04:08:37 10° ENE visible
6 Apr 11.3 01:40:03 13° NE 01:40:03 13° NE 01:40:45 10° NE visible
6 Apr 10.0 03:20:05 23° NNW 03:22:14 31° N 03:26:58 10° ENE visible
6 Apr 8.8 05:02:38 10° NW 05:08:00 70° NNE 05:13:22 10° ESE visible
7 Apr 10.1 02:40:43 29° N 02:40:43 29° N 02:45:20 10° ENE visible
7 Apr 9.1 04:21:17 10° NW 04:26:35 57° NNE 04:31:52 10° ESE visible
8 Apr 10.8 02:01:26 21° NE 02:01:26 21° NE 02:03:42 10° ENE visible
8 Apr 9.3 03:41:29 19° NW 03:45:08 47° NNE 03:50:19 10° E visible
9 Apr 9.6 03:02:22 35° NNW 03:03:39 40° NNE 03:08:43 10° E visible
9 Apr 8.5 04:43:41 10° WNW 04:49:00 64° SW 04:54:18 10° SE visible
10 Apr 10.1 02:23:25 31° NE 02:23:25 31° NE 02:27:04 10° E visible
10 Apr 8.4 04:03:30 17° WNW 04:07:39 82° SW 04:13:02 10° SE visible
10 Apr 10.2 20:18:55 10° SSW 20:20:35 18° S 20:20:35 18° S visible
11 Apr 11.2 01:44:44 13° ENE 01:44:44 13° ENE 01:45:24 10° ENE visible
11 Apr 8.5 03:24:50 49° NW 03:26:17 80° NNE 03:31:40 10° ESE visible
11 Apr 9.7 05:06:50 10° W 05:11:00 23° SW 05:15:10 10° S visible
11 Apr 9.5 19:38:08 10° S 19:42:22 24° SE 19:43:02 23° ESE visible
11 Apr 10.5 21:21:46 10° WSW 21:23:12 19° WSW 21:23:12 19° WSW visible
12 Apr 9.4 02:46:28 43° E 02:46:28 43° E 02:50:12 10° ESE visible
12 Apr 9.2 04:26:35 17° W 04:29:46 31° SW 04:34:26 10° SSE visible
12 Apr 9.9 18:57:40 10° S 19:01:09 18° SE 19:04:39 10° E visible
12 Apr 8.3 20:40:23 10° SW 20:45:30 81° SSW 20:45:30 81° SSW visible
13 Apr 11.1 02:08:24 11° E 02:08:24 11° E 02:08:40 10° ESE visible
13 Apr 8.8 03:48:33 41° SW 03:48:33 41° SW 03:53:29 10° SSE visible
13 Apr 8.4 19:59:05 10° SW 20:04:22 67° SE 20:07:32 24° ENE visible
13 Apr 10.2 21:44:44 10° W 21:47:40 28° WNW 21:47:40 28° WNW visible
